Terminal Aerodrome Forecast
Issued by NWS Wilmington, OH

Current Version | Previous Version | Text Only | Print | Product List | Glossary Off
Versions: 1 2 3 4 5 6 7 8 9 10 11 12 13 14 15 16 17 18 19 20 21 22 23 24

000
FTUS41 KILN 201732
TAFCVG
TAF
KCVG 201732Z 2018/2124 23006KT P6SM SCT030 BKN080
     FM210000 VRB03KT P6SM SCT100
     FM210800 VRB03KT 5SM BR SCT250
      TEMPO 2110/2113 3SM BR FEW002
     FM211300 VRB03KT P6SM FEW025 SCT200=

USA.gov is the U.S. government's official web portal to all federal, state and local government web resources and services.